This is the latest recevied weather packets stored in our database for station/object KY0TEQ-13. If no packets are shown the sender has not sent any weather packets the latest 10 day(s).
| Time | Temp. | Humidity | Pressure | Rain* | Wind** | Luminosity | Snow |
|---|---|---|---|---|---|---|---|
| 1788551235 | 23.89° C | 37% | 1308.9 hPa | 0 mm | - | 812 W/m² | - |
| 1788550933 | 23.89° C | 37% | 1308.9 hPa | 0 mm | - | 327 W/m² | - |
| 1788550629 | 23.89° C | 37% | 1309.1 hPa | 0 mm | - | 264 W/m² | - |
| 1788550325 | 24.44° C | 37% | 1309.1 hPa | 0 mm | - | 349 W/m² | - |
| 1788550025 | 24.44° C | 36% | 1309.3 hPa | 0 mm | - | 789 W/m² | - |
| 1788549720 | 23.89° C | 38% | 1309.1 hPa | 0 mm | - | 274 W/m² | - |
| 1788549417 | 23.89° C | 38% | 1309.1 hPa | 0 mm | - | 245 W/m² | - |
| 1788549108 | 23.89° C | 37% | 1309.3 hPa | 0 mm | - | 277 W/m² | - |
| 1788548803 | 23.89° C | 37% | 1309.1 hPa | 0 mm | - | 294 W/m² | - |
| 1788548499 | 24.44° C | 38% | 1309.1 hPa | 0 mm | - | 337 W/m² | - |
| 1788548195 | 23.89° C | 38% | 1309.3 hPa | 0 mm | - | 862 W/m² | - |
| 1788547907 | 22.78° C | 39% | 1309.5 hPa | 0 mm | - | 757 W/m² | - |
| 1788547588 | 23.33° C | 40% | 1309.6 hPa | 0 mm | - | 712 W/m² | - |
| 1788547284 | 23.33° C | 39% | 1309.4 hPa | 0 mm | - | 261 W/m² | - |
| 1788546980 | 23.33° C | 40% | 1309.6 hPa | 0 mm | - | 268 W/m² | - |
| 1788546674 | 22.78° C | 40% | 1309.6 hPa | 0 mm | - | 203 W/m² | - |
| 1788546369 | 22.78° C | 41% | 1309.7 hPa | 0 mm | - | 129 W/m² | - |
| 1788546065 | 22.78° C | 40% | 1309.7 hPa | 0 mm | - | 115 W/m² | - |
| 1788545761 | 22.78° C | 41% | 1309.6 hPa | 0 mm | - | 170 W/m² | - |
| 1788545460 | 23.33° C | 39% | 1309.6 hPa | 0 mm | - | 179 W/m² | - |
| 1788545155 | 24.44° C | 36% | 1309.7 hPa | 0 mm | - | 220 W/m² | - |
| 1788544850 | 22.78° C | 38% | 1309.9 hPa | 0 mm | - | 241 W/m² | - |
| 1788544549 | 22.78° C | 39% | 1309.7 hPa | 0 mm | - | 282 W/m² | - |
| 1788544248 | 22.22° C | 40% | 1309.9 hPa | 0 mm | - | 246 W/m² | - |
| 1788543943 | 23.33° C | 38% | 1309.9 hPa | 0 mm | - | 214 W/m² | - |
* Rain latest hour (hover to see other rain measurements)
** Current wind speed in m/s (hover to see current wind gust speed)